Luke AFB, AZ

3:14 PM MST on February 23, 2017 (GMT -0700)
Luke Air Force Base

Weather History for KLUF - August, 2013

Change the Weather History Date:

Monday, August 26, 2013

  Actual Average Record
Temperature  
Mean Temperature 87 °F -  
Max Temperature 97 °F 105 °F 114 °F (1967)
Min Temperature 77 °F 72 °F 61 °F (1941)
Cooling Degree Days 22    
Growing Degree Days 37 (Base 50)    
Moisture  
Dew Point 70 °F    
Average Humidity 65    
Maximum Humidity 100    
Minimum Humidity 36    
Precipitation  
Precipitation 0.29 in - - ()
Sea Level Pressure  
Sea Level Pressure 29.85 in    
Wind  
Wind Speed 7 mph (WNW)    
Max Wind Speed 40 mph    
Max Gust Speed 50 mph    
Visibility 9 miles    
Events Rain , Thunderstorm    
Averages and records for this station are not official NWS values.
T = Trace of Precipitation, MM = Missing Value Source: NWS Daily Summary

Daily Weather History Graph

Daily Weather History Graph

Search for Another Location

Airport or City:

Trip Planner

Search our weather history database for the weather conditions in past years. The results will help you decide how hot, cold, wet, or windy it might be!

Date:

Astronomy

Aug. 26, 2013 Rise Set
Actual Time 5:59 AM MST 7:02 PM MST
Civil Twilight 5:34 AM MST 7:27 PM MST
Nautical Twilight 5:03 AM MST 7:58 PM MST
Astronomical Twilight 4:32 AM MST 8:29 PM MST
Moon 10:36 PM MST (8/26) 11:44 AM MST (8/26)
Length of Visible Light 13h 53m
Length of Day
13h 02m
Waning Gibbous, 65% of the Moon is Illuminated
Aug 26
Waning Gibbous
Aug 28
Last Quarter
Sep 5
New
Sep 12
First Quarter
Sep 19
Full

Hourly Weather History & Observations

Time (MST) Temp. Heat Index Dew Point Humidity Pressure Visibility Wind Dir Wind Speed Gust Speed Precip Events Conditions
12:58 AM 77.4 °F - 68.7 °F 75% 29.89 in 10.0 mi North 4.6 mph - N/A   Scattered Clouds
1:58 AM 78.1 °F - 68.4 °F 72% 29.88 in 10.0 mi NW 6.9 mph - N/A   Mostly Cloudy
2:58 AM 78.1 °F - 68.9 °F 73% 29.87 in 10.0 mi NNW 4.6 mph - N/A   Mostly Cloudy
3:58 AM 77.0 °F - 70.5 °F 80% 29.87 in 10.0 mi NNW 4.6 mph - N/A   Scattered Clouds
4:58 AM 77.2 °F - 70.3 °F 79% 29.88 in 10.0 mi WNW 2.3 mph - N/A   Mostly Cloudy
5:58 AM 77.4 °F - 69.8 °F 77% 29.88 in 10.0 mi NNW 2.3 mph - N/A   Mostly Cloudy
6:58 AM 78.1 °F - 69.8 °F 76% 29.90 in 10.0 mi NNW 4.6 mph - N/A   Scattered Clouds
7:58 AM 81.1 °F 84.5 °F 69.6 °F 68% 29.90 in 10.0 mi North 3.5 mph - N/A   Scattered Clouds
8:58 AM 84.0 °F 87.8 °F 69.4 °F 61% 29.91 in 10.0 mi Variable 3.5 mph - N/A   Scattered Clouds
9:58 AM 87.3 °F 90.5 °F 67.5 °F 52% 29.89 in 10.0 mi Variable 4.6 mph - N/A   Mostly Cloudy
10:58 AM 90.1 °F 94.0 °F 67.8 °F 48% 29.88 in 10.0 mi Variable 4.6 mph - N/A   Mostly Cloudy
11:58 AM 93.0 °F 96.9 °F 67.6 °F 43% 29.86 in 10.0 mi Variable 3.5 mph - N/A   Mostly Cloudy
12:58 PM 94.3 °F 98.2 °F 67.5 °F 41% 29.84 in 10.0 mi Calm Calm - N/A   Scattered Clouds
1:58 PM 97.3 °F 102.3 °F 68.2 °F 38% 29.81 in 10.0 mi WSW 6.9 mph - N/A   Mostly Cloudy
2:58 PM 96.6 °F 102.1 °F 68.4 °F 40% 29.78 in 10.0 mi West 8.1 mph - N/A   Partly Cloudy
3:58 PM 95.9 °F 100.1 °F 67.6 °F 39% 29.76 in 10.0 mi WNW 4.6 mph - N/A   Scattered Clouds
4:58 PM 97.3 °F 101.7 °F 67.1 °F 37% 29.74 in 10.0 mi WNW 5.8 mph - N/A   Mostly Cloudy
5:58 PM 96.4 °F 99.4 °F 65.1 °F 36% 29.75 in 10.0 mi Calm Calm - N/A   Mostly Cloudy
6:58 PM 95.5 °F 98.9 °F 66.0 °F 38% 29.76 in 10.0 mi ENE 3.5 mph - N/A   Overcast
7:15 PM 96.8 °F 100.7 °F 66.2 °F 37% 29.81 in 0.5 mi ESE 24.2 mph 28.8 mph N/A Thunderstorm Thunderstorm
7:22 PM 91.4 °F 96.8 °F 69.8 °F 49% 29.82 in 0.5 mi SE 40.3 mph 49.5 mph N/A Thunderstorm Thunderstorm
7:29 PM 82.4 °F 88.2 °F 73.4 °F 74% 29.86 in 1.5 mi East 18.4 mph 49.5 mph N/A Rain , Thunderstorm Heavy Rain
7:33 PM 77.0 °F - 77.0 °F 100% 29.85 in 1.5 mi ENE 11.5 mph 28.8 mph N/A Rain , Thunderstorm Light Thunderstorms and Rain
7:43 PM 77.0 °F - 77.0 °F 100% 29.85 in 10.0 mi SSE 11.5 mph 23.0 mph N/A Rain , Thunderstorm Light Thunderstorms and Rain
7:47 PM 78.8 °F - 77.0 °F 94% 29.85 in 5.0 mi SSE 10.4 mph - N/A Rain , Thunderstorm Light Thunderstorms and Rain
7:48 PM 78.8 °F - 77.0 °F 94% 29.86 in 5.0 mi SSE 11.5 mph - N/A Rain , Thunderstorm Light Rain
7:51 PM 78.8 °F - 77.0 °F 94% 29.86 in 10.0 mi SSE 10.4 mph - N/A Rain , Thunderstorm Light Thunderstorms and Rain
7:58 PM 78.8 °F - - N/A% 29.83 in 10.0 mi SSW 6.9 mph - 0.28 in Thunderstorm Mostly Cloudy
8:05 PM 78.8 °F - - N/A% 29.85 in 10.0 mi South 9.2 mph - N/A Rain , Thunderstorm Light Thunderstorms and Rain
8:06 PM 78.8 °F - - N/A% 29.85 in 10.0 mi South 8.1 mph - N/A Thunderstorm Light Drizzle
8:58 PM 82.2 °F 87.8 °F 73.2 °F 74% 29.86 in 10.0 mi SSW 8.1 mph - 0.01 in   Mostly Cloudy
9:58 PM 81.5 °F 85.1 °F 70.0 °F 68% 29.86 in 10.0 mi Variable 2.3 mph - N/A   Scattered Clouds
10:58 PM 78.4 °F - 72.9 °F 83% 29.84 in 10.0 mi NW 16.1 mph - N/A   Scattered Clouds
11:58 PM 78.1 °F - 70.5 °F 77% 29.84 in 10.0 mi North 8.1 mph - N/A   Scattered Clouds